owner,sensor,date,latitude,longitude,air_temperature,qcFlag 
LUMCON,ioos:station:LUMCON:101:1,2009-01-05T20:00:00Z,29.2533,-90.6633,23.2,11111222 
LUMCON,ioos:station:LUMCON:101:1,2009-01-05T21:00:00Z,29.2533,-90.6633,22.3,11111222 
LUMCON,ioos:station:LUMCON:101:1,2009-01-05T22:00:00Z,29.2533,-90.6633,22.3,11111222 
LUMCON,ioos:station:LUMCON:101:1,2009-01-05T23:00:00Z,29.2533,-90.6633,21.7,11111222 
LUMCON,ioos:station:LUMCON:101:1,2009-01-06T00:00:00Z,29.2533,-90.6633,21.2,11111222 
LUMCON,ioos:station:LUMCON:101:1,2009-01-06T01:00:00Z,29.2533,-90.6633,21.0,11111222 
LUMCON,ioos:station:LUMCON:101:1,2009-01-06T02:00:00Z,29.2533,-90.6633,21.1,11111222 
LUMCON,ioos:station:LUMCON:101:1,2009-01-06T03:00:00Z,29.2533,-90.6633,20.9,11111222 
LUMCON,ioos:station:LUMCON:101:1,2009-01-06T04:00:00Z,29.2533,-90.6633,21.0,11111222 
LUMCON,ioos:station:LUMCON:101:1,2009-01-06T05:00:00Z,29.2533,-90.6633,21.1,11111222 
LUMCON,ioos:station:LUMCON:101:1,2009-01-06T06:00:00Z,29.2533,-90.6633,21.1,11111222 
LUMCON,ioos:station:LUMCON:101:1,2009-01-06T07:00:00Z,29.2533,-90.6633,21.3,11111222 
LUMCON,ioos:station:LUMCON:101:1,2009-01-06T08:00:00Z,29.2533,-90.6633,21.3,11111222 
LUMCON,ioos:station:LUMCON:101:1,2009-01-06T09:00:00Z,29.2533,-90.6633,21.4,11111222 
LUMCON,ioos:station:LUMCON:101:1,2009-01-06T10:00:00Z,29.2533,-90.6633,21.4,11111222 
LUMCON,ioos:station:LUMCON:101:1,2009-01-06T11:00:00Z,29.2533,-90.6633,21.4,11111222 
LUMCON,ioos:station:LUMCON:101:1,2009-01-06T12:00:00Z,29.2533,-90.6633,21.5,11111222 
LUMCON,ioos:station:LUMCON:101:1,2009-01-06T13:00:00Z,29.2533,-90.6633,21.3,11111222 
LUMCON,ioos:station:LUMCON:101:1,2009-01-06T14:00:00Z,29.2533,-90.6633,21.4,11111222 
LUMCON,ioos:station:LUMCON:101:1,2009-01-06T15:00:00Z,29.2533,-90.6633,22.0,11111222 
LUMCON,ioos:station:LUMCON:101:1,2009-01-06T16:00:00Z,29.2533,-90.6633,22.2,11111222 
LUMCON,ioos:station:LUMCON:101:1,2009-01-06T17:00:00Z,29.2533,-90.6633,22.6,11111222 
LUMCON,ioos:station:LUMCON:101:1,2009-01-06T18:00:00Z,29.2533,-90.6633,22.9,11111222 
LUMCON,ioos:station:LUMCON:101:1,2009-01-06T19:00:00Z,29.2533,-90.6633,23.2,11111222 
LUMCON,ioos:station:LUMCON:101:1,2009-01-06T20:00:00Z,29.2533,-90.6633,22.9,11111222 
LUMCON,ioos:station:LUMCON:101:1,2009-01-06T22:00:00Z,29.2533,-90.6633,22.8,11111222 
LUMCON,ioos:station:LUMCON:101:1,2009-01-06T23:00:00Z,29.2533,-90.6633,20.2,11111222 
LUMCON,ioos:station:LUMCON:101:1,2009-01-07T00:00:00Z,29.2533,-90.6633,19.8,11111222 
LUMCON,ioos:station:LUMCON:101:1,2009-01-07T01:00:00Z,29.2533,-90.6633,18.5,11111222 
LUMCON,ioos:station:LUMCON:101:1,2009-01-07T02:00:00Z,29.2533,-90.6633,18.3,11111222 
LUMCON,ioos:station:LUMCON:101:1,2009-01-07T03:00:00Z,29.2533,-90.6633,18.0,11111222 
LUMCON,ioos:station:LUMCON:101:1,2009-01-07T04:00:00Z,29.2533,-90.6633,17.5,11111222 
LUMCON,ioos:station:LUMCON:101:1,2009-01-07T05:00:00Z,29.2533,-90.6633,16.8,11111222 
LUMCON,ioos:station:LUMCON:101:1,2009-01-07T06:00:00Z,29.2533,-90.6633,16.9,11111222 
LUMCON,ioos:station:LUMCON:101:1,2009-01-07T07:00:00Z,29.2533,-90.6633,16.8,11111222 
LUMCON,ioos:station:LUMCON:101:1,2009-01-07T08:00:00Z,29.2533,-90.6633,16.8,11111222 
LUMCON,ioos:station:LUMCON:101:1,2009-01-07T09:00:00Z,29.2533,-90.6633,17.0,11111222 
LUMCON,ioos:station:LUMCON:101:1,2009-01-07T10:00:00Z,29.2533,-90.6633,15.7,11111222 
LUMCON,ioos:station:LUMCON:101:1,2009-01-07T11:00:00Z,29.2533,-90.6633,14.4,11111222 
LUMCON,ioos:station:LUMCON:101:1,2009-01-07T12:00:00Z,29.2533,-90.6633,13.2,11111222 
LUMCON,ioos:station:LUMCON:101:1,2009-01-07T13:00:00Z,29.2533,-90.6633,11.4,11111222 
LUMCON,ioos:station:LUMCON:101:1,2009-01-07T14:00:00Z,29.2533,-90.6633,11.2,11111222 
LUMCON,ioos:station:LUMCON:101:1,2009-01-07T15:00:00Z,29.2533,-90.6633,11.8,11111222 
LUMCON,ioos:station:LUMCON:101:1,2009-01-07T16:00:00Z,29.2533,-90.6633,12.5,11111222 
LUMCON,ioos:station:LUMCON:101:1,2009-01-07T17:00:00Z,29.2533,-90.6633,13.5,11111222 
LUMCON,ioos:station:LUMCON:101:1,2009-01-07T18:00:00Z,29.2533,-90.6633,14.8,11111222 
LUMCON,ioos:station:LUMCON:101:1,2009-01-07T19:00:00Z,29.2533,-90.6633,16.0,11111222 
LUMCON,ioos:station:LUMCON:101:1,2009-01-07T20:00:00Z,29.2533,-90.6633,16.5,11111222 
LUMCON,ioos:station:LUMCON:101:1,2009-01-07T21:00:00Z,29.2533,-90.6633,17.2,11111222 
LUMCON,ioos:station:LUMCON:101:1,2009-01-07T22:00:00Z,29.2533,-90.6633,16.7,11111222 
LUMCON,ioos:station:LUMCON:101:1,2009-01-07T23:00:00Z,29.2533,-90.6633,15.3,11111222 
LUMCON,ioos:station:LUMCON:101:1,2009-01-08T00:00:00Z,29.2533,-90.6633,14.6,11111222 
LUMCON,ioos:station:LUMCON:101:1,2009-01-08T01:00:00Z,29.2533,-90.6633,14.4,11111222 
LUMCON,ioos:station:LUMCON:101:1,2009-01-08T02:00:00Z,29.2533,-90.6633,14.8,11111222 
LUMCON,ioos:station:LUMCON:101:1,2009-01-08T03:00:00Z,29.2533,-90.6633,15.0,11111222 
LUMCON,ioos:station:LUMCON:101:1,2009-01-08T04:00:00Z,29.2533,-90.6633,15.7,11111222 
LUMCON,ioos:station:LUMCON:101:1,2009-01-08T05:00:00Z,29.2533,-90.6633,15.8,11111222 
LUMCON,ioos:station:LUMCON:101:1,2009-01-08T06:00:00Z,29.2533,-90.6633,15.7,11111222 
LUMCON,ioos:station:LUMCON:101:1,2009-01-08T07:00:00Z,29.2533,-90.6633,15.9,11111222 
LUMCON,ioos:station:LUMCON:101:1,2009-01-08T08:00:00Z,29.2533,-90.6633,15.7,11111222 
LUMCON,ioos:station:LUMCON:101:1,2009-01-08T09:00:00Z,29.2533,-90.6633,15.5,11111222 
LUMCON,ioos:station:LUMCON:101:1,2009-01-08T10:00:00Z,29.2533,-90.6633,15.3,11111222 
LUMCON,ioos:station:LUMCON:101:1,2009-01-08T11:00:00Z,29.2533,-90.6633,15.4,11111222 
LUMCON,ioos:station:LUMCON:101:1,2009-01-08T12:00:00Z,29.2533,-90.6633,15.2,11111222 
LUMCON,ioos:station:LUMCON:101:1,2009-01-08T13:00:00Z,29.2533,-90.6633,15.2,11111222 
LUMCON,ioos:station:LUMCON:101:1,2009-01-08T14:00:00Z,29.2533,-90.6633,15.8,11111222 
LUMCON,ioos:station:LUMCON:101:1,2009-01-08T15:00:00Z,29.2533,-90.6633,18.5,11111222 
LUMCON,ioos:station:LUMCON:101:1,2009-01-08T16:00:00Z,29.2533,-90.6633,20.4,11111222 
LUMCON,ioos:station:LUMCON:101:1,2009-01-08T17:00:00Z,29.2533,-90.6633,21.2,11111222 
LUMCON,ioos:station:LUMCON:101:1,2009-01-08T18:00:00Z,29.2533,-90.6633,21.4,11111222 
LUMCON,ioos:station:LUMCON:101:1,2009-01-08T19:00:00Z,29.2533,-90.6633,21.7,11111222 
LUMCON,ioos:station:LUMCON:101:1,2009-01-08T20:00:00Z,29.2533,-90.6633,21.8,11111222 
LUMCON,ioos:station:LUMCON:101:1,2009-01-08T21:00:00Z,29.2533,-90.6633,21.5,11111222 
LUMCON,ioos:station:LUMCON:101:1,2009-01-08T22:00:00Z,29.2533,-90.6633,21.0,11111222 
LUMCON,ioos:station:LUMCON:101:1,2009-01-08T23:00:00Z,29.2533,-90.6633,19.9,11111222 
LUMCON,ioos:station:LUMCON:101:1,2009-01-09T00:00:00Z,29.2533,-90.6633,18.2,11111222 
LUMCON,ioos:station:LUMCON:101:1,2009-01-09T01:00:00Z,29.2533,-90.6633,17.2,11111222 
LUMCON,ioos:station:LUMCON:101:1,2009-01-09T02:00:00Z,29.2533,-90.6633,16.8,11111222 
LUMCON,ioos:station:LUMCON:101:1,2009-01-09T03:00:00Z,29.2533,-90.6633,16.7,11111222 
LUMCON,ioos:station:LUMCON:101:1,2009-01-09T04:00:00Z,29.2533,-90.6633,16.6,11111222 
LUMCON,ioos:station:LUMCON:101:1,2009-01-09T05:00:00Z,29.2533,-90.6633,16.6,11111222 
LUMCON,ioos:station:LUMCON:101:1,2009-01-09T06:00:00Z,29.2533,-90.6633,16.6,11111222 
LUMCON,ioos:station:LUMCON:101:1,2009-01-09T07:00:00Z,29.2533,-90.6633,16.7,11111222 
LUMCON,ioos:station:LUMCON:101:1,2009-01-09T08:00:00Z,29.2533,-90.6633,16.5,11111222 
LUMCON,ioos:station:LUMCON:101:1,2009-01-09T09:00:00Z,29.2533,-90.6633,16.4,11111222 
LUMCON,ioos:station:LUMCON:101:1,2009-01-09T10:00:00Z,29.2533,-90.6633,16.5,11111222 
LUMCON,ioos:station:LUMCON:101:1,2009-01-09T11:00:00Z,29.2533,-90.6633,16.4,11111222 
LUMCON,ioos:station:LUMCON:101:1,2009-01-09T12:00:00Z,29.2533,-90.6633,16.6,11111222 
LUMCON,ioos:station:LUMCON:101:1,2009-01-09T13:00:00Z,29.2533,-90.6633,16.4,11111222 
LUMCON,ioos:station:LUMCON:101:1,2009-01-09T14:00:00Z,29.2533,-90.6633,16.9,11111222 
LUMCON,ioos:station:LUMCON:101:1,2009-01-09T15:00:00Z,29.2533,-90.6633,18.7,11111222 
LUMCON,ioos:station:LUMCON:101:1,2009-01-09T16:00:00Z,29.2533,-90.6633,19.3,11111222 
LUMCON,ioos:station:LUMCON:101:1,2009-01-09T17:00:00Z,29.2533,-90.6633,19.9,11111222 
LUMCON,ioos:station:LUMCON:101:1,2009-01-09T18:00:00Z,29.2533,-90.6633,19.9,11111222 
LUMCON,ioos:station:LUMCON:101:1,2009-01-09T19:00:00Z,29.2533,-90.6633,20.2,11111222 
LUMCON,ioos:station:LUMCON:101:1,2009-01-09T20:00:00Z,29.2533,-90.6633,20.1,11111222 
LUMCON,ioos:station:LUMCON:101:1,2009-01-09T21:00:00Z,29.2533,-90.6633,20.2,11111222 
LUMCON,ioos:station:LUMCON:101:1,2009-01-09T22:00:00Z,29.2533,-90.6633,20.1,11111222 
LUMCON,ioos:station:LUMCON:101:1,2009-01-09T23:00:00Z,29.2533,-90.6633,20.0,11111222 
LUMCON,ioos:station:LUMCON:101:1,2009-01-10T00:00:00Z,29.2533,-90.6633,19.9,11111222 
LUMCON,ioos:station:LUMCON:101:1,2009-01-10T01:00:00Z,29.2533,-90.6633,19.8,11111222 
LUMCON,ioos:station:LUMCON:101:1,2009-01-10T02:00:00Z,29.2533,-90.6633,20.2,11111222 
LUMCON,ioos:station:LUMCON:101:1,2009-01-10T03:00:00Z,29.2533,-90.6633,20.3,11111222 
LUMCON,ioos:station:LUMCON:101:1,2009-01-10T04:00:00Z,29.2533,-90.6633,20.4,11111222 
LUMCON,ioos:station:LUMCON:101:1,2009-01-10T05:00:00Z,29.2533,-90.6633,20.5,11111222 
LUMCON,ioos:station:LUMCON:101:1,2009-01-10T06:00:00Z,29.2533,-90.6633,20.2,11111222 
LUMCON,ioos:station:LUMCON:101:1,2009-01-10T07:00:00Z,29.2533,-90.6633,20.1,11111222 
LUMCON,ioos:station:LUMCON:101:1,2009-01-10T08:00:00Z,29.2533,-90.6633,20.4,11111222 
LUMCON,ioos:station:LUMCON:101:1,2009-01-10T09:00:00Z,29.2533,-90.6633,20.6,11111222 
LUMCON,ioos:station:LUMCON:101:1,2009-01-10T10:00:00Z,29.2533,-90.6633,20.3,11111222 
LUMCON,ioos:station:LUMCON:101:1,2009-01-10T11:00:00Z,29.2533,-90.6633,20.4,11111222 
LUMCON,ioos:station:LUMCON:101:1,2009-01-10T12:00:00Z,29.2533,-90.6633,20.4,11111222 
LUMCON,ioos:station:LUMCON:101:1,2009-01-10T13:00:00Z,29.2533,-90.6633,20.3,11111222 
LUMCON,ioos:station:LUMCON:101:1,2009-01-10T14:00:00Z,29.2533,-90.6633,20.7,11111222 
LUMCON,ioos:station:LUMCON:101:1,2009-01-10T15:00:00Z,29.2533,-90.6633,21.8,11111222 
LUMCON,ioos:station:LUMCON:101:1,2009-01-10T16:00:00Z,29.2533,-90.6633,23.1,11111222 
LUMCON,ioos:station:LUMCON:101:1,2009-01-10T17:00:00Z,29.2533,-90.6633,23.3,11111222 
LUMCON,ioos:station:LUMCON:101:1,2009-01-10T18:00:00Z,29.2533,-90.6633,24.3,11111222 
LUMCON,ioos:station:LUMCON:101:1,2009-01-10T19:00:00Z,29.2533,-90.6633,24.3,11111222 
LUMCON,ioos:station:LUMCON:101:1,2009-01-10T20:00:00Z,29.2533,-90.6633,24.5,11111222 
LUMCON,ioos:station:LUMCON:101:1,2009-01-10T21:00:00Z,29.2533,-90.6633,24.3,11111222 
LUMCON,ioos:station:LUMCON:101:1,2009-01-10T22:00:00Z,29.2533,-90.6633,23.7,11111222 
LUMCON,ioos:station:LUMCON:101:1,2009-01-10T23:00:00Z,29.2533,-90.6633,22.9,11111222 
LUMCON,ioos:station:LUMCON:101:1,2009-01-11T00:00:00Z,29.2533,-90.6633,22.1,11111222 
LUMCON,ioos:station:LUMCON:101:1,2009-01-11T01:00:00Z,29.2533,-90.6633,22.1,11111222 
LUMCON,ioos:station:LUMCON:101:1,2009-01-11T02:00:00Z,29.2533,-90.6633,21.6,11111222 
LUMCON,ioos:station:LUMCON:101:1,2009-01-11T03:00:00Z,29.2533,-90.6633,20.8,11111222 
LUMCON,ioos:station:LUMCON:101:1,2009-01-11T04:00:00Z,29.2533,-90.6633,20.6,11111222 
LUMCON,ioos:station:LUMCON:101:1,2009-01-11T05:00:00Z,29.2533,-90.6633,17.9,11111222 
LUMCON,ioos:station:LUMCON:101:1,2009-01-11T06:00:00Z,29.2533,-90.6633,16.7,11111222 
LUMCON,ioos:station:LUMCON:101:1,2009-01-11T07:00:00Z,29.2533,-90.6633,15.7,11111222 
LUMCON,ioos:station:LUMCON:101:1,2009-01-11T08:00:00Z,29.2533,-90.6633,15.4,11111222 
LUMCON,ioos:station:LUMCON:101:1,2009-01-11T09:00:00Z,29.2533,-90.6633,14.7,11111222 
LUMCON,ioos:station:LUMCON:101:1,2009-01-11T10:00:00Z,29.2533,-90.6633,13.1,11111222 
LUMCON,ioos:station:LUMCON:101:1,2009-01-11T11:00:00Z,29.2533,-90.6633,12.2,11111222 
LUMCON,ioos:station:LUMCON:101:1,2009-01-11T12:00:00Z,29.2533,-90.6633,11.6,11111222 
LUMCON,ioos:station:LUMCON:101:1,2009-01-11T13:00:00Z,29.2533,-90.6633,10.9,11111222 
LUMCON,ioos:station:LUMCON:101:1,2009-01-11T14:00:00Z,29.2533,-90.6633,10.2,11111222 
LUMCON,ioos:station:LUMCON:101:1,2009-01-11T15:00:00Z,29.2533,-90.6633,9.8,11111222 
LUMCON,ioos:station:LUMCON:101:1,2009-01-11T16:00:00Z,29.2533,-90.6633,9.9,11111222 
LUMCON,ioos:station:LUMCON:101:1,2009-01-11T17:00:00Z,29.2533,-90.6633,9.5,11111222 
LUMCON,ioos:station:LUMCON:101:1,2009-01-11T18:00:00Z,29.2533,-90.6633,9.6,11111222 
LUMCON,ioos:station:LUMCON:101:1,2009-01-11T19:00:00Z,29.2533,-90.6633,10.3,11111222 
LUMCON,ioos:station:LUMCON:101:1,2009-01-11T20:00:00Z,29.2533,-90.6633,11.0,11111222 
LUMCON,ioos:station:LUMCON:101:1,2009-01-11T21:00:00Z,29.2533,-90.6633,11.5,11111222 
LUMCON,ioos:station:LUMCON:101:1,2009-01-11T22:00:00Z,29.2533,-90.6633,11.8,11111222 
LUMCON,ioos:station:LUMCON:101:1,2009-01-11T23:00:00Z,29.2533,-90.6633,11.5,11111222 
LUMCON,ioos:station:LUMCON:101:1,2009-01-12T00:00:00Z,29.2533,-90.6633,11.5,11111222 
LUMCON,ioos:station:LUMCON:101:1,2009-01-12T01:00:00Z,29.2533,-90.6633,11.1,11111222 
LUMCON,ioos:station:LUMCON:101:1,2009-01-12T02:00:00Z,29.2533,-90.6633,9.7,11111222 
LUMCON,ioos:station:LUMCON:101:1,2009-01-12T03:00:00Z,29.2533,-90.6633,8.6,11111222 
LUMCON,ioos:station:LUMCON:101:1,2009-01-12T04:00:00Z,29.2533,-90.6633,8.0,11111222 
LUMCON,ioos:station:LUMCON:101:1,2009-01-12T05:00:00Z,29.2533,-90.6633,7.5,11111222 
LUMCON,ioos:station:LUMCON:101:1,2009-01-12T06:00:00Z,29.2533,-90.6633,7.4,11111222 
LUMCON,ioos:station:LUMCON:101:1,2009-01-12T07:00:00Z,29.2533,-90.6633,6.9,11111222 
LUMCON,ioos:station:LUMCON:101:1,2009-01-12T08:00:00Z,29.2533,-90.6633,6.7,11111222 
LUMCON,ioos:station:LUMCON:101:1,2009-01-12T09:00:00Z,29.2533,-90.6633,6.6,11111222 
LUMCON,ioos:station:LUMCON:101:1,2009-01-12T10:00:00Z,29.2533,-90.6633,6.5,11111222 
LUMCON,ioos:station:LUMCON:101:1,2009-01-12T11:00:00Z,29.2533,-90.6633,6.2,11111222 
LUMCON,ioos:station:LUMCON:101:1,2009-01-12T12:00:00Z,29.2533,-90.6633,6.4,11111222 
LUMCON,ioos:station:LUMCON:101:1,2009-01-12T13:00:00Z,29.2533,-90.6633,6.4,11111222 
LUMCON,ioos:station:LUMCON:101:1,2009-01-12T14:00:00Z,29.2533,-90.6633,7.0,11111222 
LUMCON,ioos:station:LUMCON:101:1,2009-01-12T15:00:00Z,29.2533,-90.6633,7.9,11111222 
LUMCON,ioos:station:LUMCON:101:1,2009-01-12T16:00:00Z,29.2533,-90.6633,9.0,11111222 
LUMCON,ioos:station:LUMCON:101:1,2009-01-12T17:00:00Z,29.2533,-90.6633,10.0,11111222 
LUMCON,ioos:station:LUMCON:101:1,2009-01-12T18:00:00Z,29.2533,-90.6633,11.3,11111222 
LUMCON,ioos:station:LUMCON:101:1,2009-01-12T19:00:00Z,29.2533,-90.6633,11.7,11111222 
LUMCON,ioos:station:LUMCON:101:1,2009-01-12T20:00:00Z,29.2533,-90.6633,12.6,11111222 
LUMCON,ioos:station:LUMCON:101:1,2009-01-12T21:00:00Z,29.2533,-90.6633,12.8,11111222 
LUMCON,ioos:station:LUMCON:101:1,2009-01-12T22:00:00Z,29.2533,-90.6633,12.8,11111222 
LUMCON,ioos:station:LUMCON:101:1,2009-01-12T23:00:00Z,29.2533,-90.6633,12.2,11111222 
LUMCON,ioos:station:LUMCON:101:1,2009-01-13T00:00:00Z,29.2533,-90.6633,11.7,11111222 
LUMCON,ioos:station:LUMCON:101:1,2009-01-13T01:00:00Z,29.2533,-90.6633,11.0,11111222 
LUMCON,ioos:station:LUMCON:101:1,2009-01-13T02:00:00Z,29.2533,-90.6633,10.9,11111222 
LUMCON,ioos:station:LUMCON:101:1,2009-01-13T03:00:00Z,29.2533,-90.6633,10.1,11111222 
LUMCON,ioos:station:LUMCON:101:1,2009-01-13T04:00:00Z,29.2533,-90.6633,10.1,11111222 
LUMCON,ioos:station:LUMCON:101:1,2009-01-13T05:00:00Z,29.2533,-90.6633,9.9,11111222 
LUMCON,ioos:station:LUMCON:101:1,2009-01-13T06:00:00Z,29.2533,-90.6633,9.5,11111222 
LUMCON,ioos:station:LUMCON:101:1,2009-01-13T07:00:00Z,29.2533,-90.6633,9.3,11111222 
LUMCON,ioos:station:LUMCON:101:1,2009-01-13T08:00:00Z,29.2533,-90.6633,8.9,11111222 
LUMCON,ioos:station:LUMCON:101:1,2009-01-13T09:00:00Z,29.2533,-90.6633,8.5,11111222 
LUMCON,ioos:station:LUMCON:101:1,2009-01-13T10:00:00Z,29.2533,-90.6633,8.9,11111222 
LUMCON,ioos:station:LUMCON:101:1,2009-01-13T11:00:00Z,29.2533,-90.6633,8.7,11111222 
LUMCON,ioos:station:LUMCON:101:1,2009-01-13T12:00:00Z,29.2533,-90.6633,8.6,11111222 
LUMCON,ioos:station:LUMCON:101:1,2009-01-13T13:00:00Z,29.2533,-90.6633,8.2,11111222 
LUMCON,ioos:station:LUMCON:101:1,2009-01-13T14:00:00Z,29.2533,-90.6633,9.3,11111222 
LUMCON,ioos:station:LUMCON:101:1,2009-01-13T15:00:00Z,29.2533,-90.6633,11.0,11111222 
LUMCON,ioos:station:LUMCON:101:1,2009-01-13T16:00:00Z,29.2533,-90.6633,12.6,11111222 
LUMCON,ioos:station:LUMCON:101:1,2009-01-13T17:00:00Z,29.2533,-90.6633,12.3,11111222 
LUMCON,ioos:station:LUMCON:101:1,2009-01-13T18:00:00Z,29.2533,-90.6633,13.3,11111222 
LUMCON,ioos:station:LUMCON:101:1,2009-01-13T19:00:00Z,29.2533,-90.6633,13.9,11111222 
LUMCON,ioos:station:LUMCON:101:1,2009-01-13T20:00:00Z,29.2533,-90.6633,14.2,11111222 
LUMCON,ioos:station:LUMCON:101:1,2009-01-13T21:00:00Z,29.2533,-90.6633,14.1,11111222 
LUMCON,ioos:station:LUMCON:101:1,2009-01-13T22:00:00Z,29.2533,-90.6633,14.0,11111222 
LUMCON,ioos:station:LUMCON:101:1,2009-01-13T23:00:00Z,29.2533,-90.6633,13.1,11111222 
LUMCON,ioos:station:LUMCON:101:1,2009-01-14T00:00:00Z,29.2533,-90.6633,11.3,11111222 
LUMCON,ioos:station:LUMCON:101:1,2009-01-14T01:00:00Z,29.2533,-90.6633,10.2,11111222 
LUMCON,ioos:station:LUMCON:101:1,2009-01-14T02:00:00Z,29.2533,-90.6633,9.4,11111222 
LUMCON,ioos:station:LUMCON:101:1,2009-01-14T03:00:00Z,29.2533,-90.6633,8.6,11111222 
LUMCON,ioos:station:LUMCON:101:1,2009-01-14T04:00:00Z,29.2533,-90.6633,8.0,11111222 
LUMCON,ioos:station:LUMCON:101:1,2009-01-14T05:00:00Z,29.2533,-90.6633,7.5,11111222 
LUMCON,ioos:station:LUMCON:101:1,2009-01-14T06:00:00Z,29.2533,-90.6633,7.1,11111222 
LUMCON,ioos:station:LUMCON:101:1,2009-01-14T07:00:00Z,29.2533,-90.6633,6.4,11111222 
LUMCON,ioos:station:LUMCON:101:1,2009-01-14T08:00:00Z,29.2533,-90.6633,5.4,11111222 
LUMCON,ioos:station:LUMCON:101:1,2009-01-14T09:00:00Z,29.2533,-90.6633,4.6,11111222 
LUMCON,ioos:station:LUMCON:101:1,2009-01-14T10:00:00Z,29.2533,-90.6633,3.9,11111222 
LUMCON,ioos:station:LUMCON:101:1,2009-01-14T11:00:00Z,29.2533,-90.6633,3.7,11111222 
LUMCON,ioos:station:LUMCON:101:1,2009-01-14T12:00:00Z,29.2533,-90.6633,3.8,11111222 
LUMCON,ioos:station:LUMCON:101:1,2009-01-14T13:00:00Z,29.2533,-90.6633,3.7,11111222 
LUMCON,ioos:station:LUMCON:101:1,2009-01-14T14:00:00Z,29.2533,-90.6633,5.0,11111222 
LUMCON,ioos:station:LUMCON:101:1,2009-01-14T15:00:00Z,29.2533,-90.6633,5.6,11111222 
LUMCON,ioos:station:LUMCON:101:1,2009-01-14T16:00:00Z,29.2533,-90.6633,6.6,11111222 
LUMCON,ioos:station:LUMCON:101:1,2009-01-14T17:00:00Z,29.2533,-90.6633,7.6,11111222 
LUMCON,ioos:station:LUMCON:101:1,2009-01-16T22:00:00Z,29.2533,-90.6633,7.4,11111222 
LUMCON,ioos:station:LUMCON:101:1,2009-01-16T23:00:00Z,29.2533,-90.6633,7.1,11111222 
LUMCON,ioos:station:LUMCON:101:1,2009-01-17T00:00:00Z,29.2533,-90.6633,6.1,11111222 
LUMCON,ioos:station:LUMCON:101:1,2009-01-17T01:00:00Z,29.2533,-90.6633,5.7,11111222 
LUMCON,ioos:station:LUMCON:101:1,2009-01-17T02:00:00Z,29.2533,-90.6633,5.2,11111222 
LUMCON,ioos:station:LUMCON:101:1,2009-01-17T03:00:00Z,29.2533,-90.6633,5.2,11111222 
LUMCON,ioos:station:LUMCON:101:1,2009-01-17T04:00:00Z,29.2533,-90.6633,5.1,11111222 
LUMCON,ioos:station:LUMCON:101:1,2009-01-17T05:00:00Z,29.2533,-90.6633,4.9,11111222 
LUMCON,ioos:station:LUMCON:101:1,2009-01-17T06:00:00Z,29.2533,-90.6633,5.4,11111222 
LUMCON,ioos:station:LUMCON:101:1,2009-01-17T07:00:00Z,29.2533,-90.6633,6.2,11111222 
LUMCON,ioos:station:LUMCON:101:1,2009-01-17T08:00:00Z,29.2533,-90.6633,6.5,11111222 
LUMCON,ioos:station:LUMCON:101:1,2009-01-17T09:00:00Z,29.2533,-90.6633,6.7,11111222 
LUMCON,ioos:station:LUMCON:101:1,2009-01-17T10:00:00Z,29.2533,-90.6633,6.9,11111222 
LUMCON,ioos:station:LUMCON:101:1,2009-01-17T11:00:00Z,29.2533,-90.6633,5.9,11111222 
LUMCON,ioos:station:LUMCON:101:1,2009-01-17T12:00:00Z,29.2533,-90.6633,4.4,11111222 
LUMCON,ioos:station:LUMCON:101:1,2009-01-17T13:00:00Z,29.2533,-90.6633,4.1,11111222 
LUMCON,ioos:station:LUMCON:101:1,2009-01-17T14:00:00Z,29.2533,-90.6633,5.8,11111222 
LUMCON,ioos:station:LUMCON:101:1,2009-01-17T15:00:00Z,29.2533,-90.6633,8.5,11111222 
LUMCON,ioos:station:LUMCON:101:1,2009-01-17T16:00:00Z,29.2533,-90.6633,10.4,11111222 
LUMCON,ioos:station:LUMCON:101:1,2009-01-17T17:00:00Z,29.2533,-90.6633,12.0,11111222 
LUMCON,ioos:station:LUMCON:101:1,2009-01-17T18:00:00Z,29.2533,-90.6633,12.3,11111222 
LUMCON,ioos:station:LUMCON:101:1,2009-01-17T19:00:00Z,29.2533,-90.6633,13.6,11111222 
LUMCON,ioos:station:LUMCON:101:1,2009-01-17T20:00:00Z,29.2533,-90.6633,13.5,11111222 
LUMCON,ioos:station:LUMCON:101:1,2009-01-17T21:00:00Z,29.2533,-90.6633,14.0,11111222 
LUMCON,ioos:station:LUMCON:101:1,2009-01-17T22:00:00Z,29.2533,-90.6633,13.9,11111222 
LUMCON,ioos:station:LUMCON:101:1,2009-01-17T23:00:00Z,29.2533,-90.6633,13.6,11111222 
LUMCON,ioos:station:LUMCON:101:1,2009-01-18T00:00:00Z,29.2533,-90.6633,13.1,11111222 
LUMCON,ioos:station:LUMCON:101:1,2009-01-18T01:00:00Z,29.2533,-90.6633,12.8,11111222 
LUMCON,ioos:station:LUMCON:101:1,2009-01-18T02:00:00Z,29.2533,-90.6633,12.8,11111222 
LUMCON,ioos:station:LUMCON:101:1,2009-01-18T03:00:00Z,29.2533,-90.6633,12.4,11111222 
LUMCON,ioos:station:LUMCON:101:1,2009-01-18T04:00:00Z,29.2533,-90.6633,12.6,11111222 
LUMCON,ioos:station:LUMCON:101:1,2009-01-18T05:00:00Z,29.2533,-90.6633,12.1,11111222 
LUMCON,ioos:station:LUMCON:101:1,2009-01-18T06:00:00Z,29.2533,-90.6633,12.5,11111222 
LUMCON,ioos:station:LUMCON:101:1,2009-01-18T07:00:00Z,29.2533,-90.6633,14.6,11111222 
LUMCON,ioos:station:LUMCON:101:1,2009-01-18T08:00:00Z,29.2533,-90.6633,15.1,11111222 
LUMCON,ioos:station:LUMCON:101:1,2009-01-18T09:00:00Z,29.2533,-90.6633,14.7,11111222 
LUMCON,ioos:station:LUMCON:101:1,2009-01-18T10:00:00Z,29.2533,-90.6633,14.9,11111222 
LUMCON,ioos:station:LUMCON:101:1,2009-01-18T11:00:00Z,29.2533,-90.6633,15.1,11111222 
LUMCON,ioos:station:LUMCON:101:1,2009-01-18T12:00:00Z,29.2533,-90.6633,15.0,11111222 
LUMCON,ioos:station:LUMCON:101:1,2009-01-18T13:00:00Z,29.2533,-90.6633,15.0,11111222 
LUMCON,ioos:station:LUMCON:101:1,2009-01-18T14:00:00Z,29.2533,-90.6633,16.1,11111222 
LUMCON,ioos:station:LUMCON:101:1,2009-01-18T15:00:00Z,29.2533,-90.6633,16.1,11111222 
LUMCON,ioos:station:LUMCON:101:1,2009-01-18T16:00:00Z,29.2533,-90.6633,15.3,11111222 
LUMCON,ioos:station:LUMCON:101:1,2009-01-18T17:00:00Z,29.2533,-90.6633,16.7,11111222 
LUMCON,ioos:station:LUMCON:101:1,2009-01-18T18:00:00Z,29.2533,-90.6633,17.9,11111222 
LUMCON,ioos:station:LUMCON:101:1,2009-01-18T19:00:00Z,29.2533,-90.6633,18.2,11111222 
LUMCON,ioos:station:LUMCON:101:1,2009-01-18T20:00:00Z,29.2533,-90.6633,18.5,11111222 
LUMCON,ioos:station:LUMCON:101:1,2009-01-18T21:00:00Z,29.2533,-90.6633,18.4,11111222 
LUMCON,ioos:station:LUMCON:101:1,2009-01-18T22:00:00Z,29.2533,-90.6633,18.3,11111222 
LUMCON,ioos:station:LUMCON:101:1,2009-01-18T23:00:00Z,29.2533,-90.6633,16.7,11111222 
LUMCON,ioos:station:LUMCON:101:1,2009-01-19T00:00:00Z,29.2533,-90.6633,14.4,11111222 
LUMCON,ioos:station:LUMCON:101:1,2009-01-19T01:00:00Z,29.2533,-90.6633,13.5,11111222 
LUMCON,ioos:station:LUMCON:101:1,2009-01-19T02:00:00Z,29.2533,-90.6633,13.2,11111222 
LUMCON,ioos:station:LUMCON:101:1,2009-01-19T03:00:00Z,29.2533,-90.6633,12.8,11111222 
LUMCON,ioos:station:LUMCON:101:1,2009-01-19T04:00:00Z,29.2533,-90.6633,12.7,11111222 
LUMCON,ioos:station:LUMCON:101:1,2009-01-19T05:00:00Z,29.2533,-90.6633,12.3,11111222 
LUMCON,ioos:station:LUMCON:101:1,2009-01-19T06:00:00Z,29.2533,-90.6633,11.6,11111222 
LUMCON,ioos:station:LUMCON:101:1,2009-01-19T07:00:00Z,29.2533,-90.6633,11.3,11111222 
LUMCON,ioos:station:LUMCON:101:1,2009-01-19T08:00:00Z,29.2533,-90.6633,10.5,11111222 
LUMCON,ioos:station:LUMCON:101:1,2009-01-19T09:00:00Z,29.2533,-90.6633,10.3,11111222 
LUMCON,ioos:station:LUMCON:101:1,2009-01-19T10:00:00Z,29.2533,-90.6633,10.4,11111222 
LUMCON,ioos:station:LUMCON:101:1,2009-01-19T11:00:00Z,29.2533,-90.6633,10.5,11111222 
LUMCON,ioos:station:LUMCON:101:1,2009-01-19T12:00:00Z,29.2533,-90.6633,9.4,11111222 
LUMCON,ioos:station:LUMCON:101:1,2009-01-19T13:00:00Z,29.2533,-90.6633,10.2,11111222 
LUMCON,ioos:station:LUMCON:101:1,2009-01-19T14:00:00Z,29.2533,-90.6633,12.2,11111222 
LUMCON,ioos:station:LUMCON:101:1,2009-01-19T15:00:00Z,29.2533,-90.6633,15.1,11111222 